Weather History for Bentonville, AR

Change the Weather History Date:

Wednesday, January 9, 2013

  Actual Average Record
Temperature  
Mean Temperature 50 °F -  
Max Temperature 53 °F 39 °F 67 °F (1949)
Min Temperature 46 °F 19 °F -10 °F (1970)
Degree Days  
Heating Degree Days 16    
Moisture  
Dew Point 42 °F    
Average Humidity 74    
Maximum Humidity 93    
Minimum Humidity 54    
Precipitation  
Precipitation 0.07 in - - ()
Sea Level Pressure  
Sea Level Pressure 30.26 in    
Wind  
Wind Speed 8 mph (ENE)    
Max Wind Speed 24 mph    
Max Gust Speed 36 mph    
Visibility 8 miles    
Events      
Averages and records for this station are not official NWS values.
T = Trace of Precipitation, MM = Missing Value Source: NWS Daily Summary

Daily Weather History Graph

Daily Weather History Graph

Search for Another Location

Airport:

Trip Planner

Search our weather history database for the weather conditions in past years. The results will help you decide how hot, cold, wet, or windy it might be!

Date:

Astronomy

Jan. 09, 2013 Rise Set
Actual Time 7:28 AM CST 5:19 PM CST
Civil Twilight 7:00 AM CST 5:48 PM CST
Nautical Twilight 6:28 AM CST 6:20 PM CST
Astronomical Twilight 5:57 AM CST 6:51 PM CST
Moon 5:08 AM CST (1/9) 3:22 PM CST (1/9)
Length of Visible Light 10h 47m
Length of Day
9h 51m
Waning Crescent, 6% of the Moon is Illuminated
Jan 9
Waning Crescent
Jan 11
New
Jan 18
First Quarter
Jan 26
Full
Feb 3
Last Quarter

Hourly Weather History & Observations

Time (CST) Temp. Windchill Dew Point Humidity Pressure Visibility Wind Dir Wind Speed Gust Speed Precip Events Conditions
12:35 AM 46.4 °F 43.5 °F 44.6 °F 93% 30.20 in 2.5 mi East 5.8 mph - 0.04 in   Overcast
12:55 AM 48.2 °F - 44.6 °F 87% 30.20 in 5.0 mi ESE 4.6 mph - 0.04 in   Overcast
1:35 AM 48.2 °F - 44.6 °F 87% 30.21 in 2.5 mi Calm Calm - N/A   Overcast
1:55 AM 48.2 °F - 44.6 °F 87% 30.21 in 2.5 mi ESE 4.6 mph - 0.01 in   Overcast
2:15 AM 48.2 °F - 44.6 °F 87% 30.22 in 2.0 mi Calm Calm - 0.01 in   Overcast
2:35 AM 48.2 °F - 46.4 °F 93% 30.21 in 2.5 mi Calm Calm - 0.01 in   Mostly Cloudy
2:55 AM 48.2 °F - 46.4 °F 93% 30.21 in 4.0 mi East 3.5 mph - 0.01 in   Overcast
3:15 AM 48.2 °F - 44.6 °F 87% 30.22 in 4.0 mi ENE 3.5 mph - N/A   Overcast
3:55 AM 48.2 °F - 46.4 °F 93% 30.22 in 2.5 mi NNE 3.5 mph - 0.01 in   Overcast
4:15 AM 48.2 °F - 44.6 °F 87% 30.21 in 2.5 mi NE 5.8 mph - N/A   Overcast
4:55 AM 46.4 °F 43.5 °F 44.6 °F 93% 30.23 in 3.0 mi North 5.8 mph - N/A   Overcast
5:35 AM 48.2 °F - 44.6 °F 87% 30.24 in 3.0 mi NE 9.2 mph - N/A   Overcast
5:55 AM 48.2 °F - 46.4 °F 93% 30.24 in 2.5 mi NE 9.2 mph - N/A   Overcast
6:15 AM 48.2 °F - 46.4 °F 93% 30.25 in 1.2 mi NE 8.1 mph - N/A   Overcast
6:35 AM 48.2 °F - 46.4 °F 93% 30.26 in 5.0 mi East 9.2 mph - N/A   Overcast
6:55 AM 48.2 °F - 46.4 °F 93% 30.27 in 10.0 mi ENE 8.1 mph - N/A   Overcast
7:15 AM 48.2 °F - 44.6 °F 87% 30.27 in 10.0 mi ENE 9.2 mph - N/A   Overcast
7:35 AM 46.4 °F 42.9 °F 44.6 °F 93% 30.29 in 10.0 mi East 6.9 mph - N/A   Mostly Cloudy
7:55 AM 46.4 °F 43.5 °F 44.6 °F 93% 30.30 in 10.0 mi East 5.8 mph - N/A   Partly Cloudy
8:15 AM 46.4 °F 42.9 °F 44.6 °F 93% 30.31 in 10.0 mi ENE 6.9 mph - N/A   Partly Cloudy
8:55 AM 46.4 °F 42.4 °F 42.8 °F 87% 30.32 in 8.0 mi East 8.1 mph - N/A   Partly Cloudy
9:15 AM 46.4 °F 41.5 °F 44.6 °F 93% 30.32 in 9.0 mi East 10.4 mph - N/A   Clear
9:35 AM 48.2 °F - 44.6 °F 87% 30.32 in 10.0 mi ESE 8.1 mph - N/A   Clear
9:55 AM 48.2 °F - 44.6 °F 87% 30.33 in 10.0 mi East 9.2 mph - N/A   Clear
10:35 AM 48.2 °F - 44.6 °F 87% 30.33 in 10.0 mi ENE 10.4 mph - N/A   Clear
11:15 AM 50.0 °F - 42.8 °F 76% 30.32 in 10.0 mi ENE 11.5 mph 16.1 mph N/A   Clear
12:15 PM 51.8 °F - 42.8 °F 71% 30.31 in 10.0 mi ENE 11.5 mph 17.3 mph N/A   Clear
12:55 PM 51.8 °F - 42.8 °F 71% 30.29 in 10.0 mi ENE 10.4 mph - N/A   Clear
1:15 PM 51.8 °F - 42.8 °F 71% 30.28 in 10.0 mi ENE 12.7 mph 16.1 mph N/A   Clear
1:35 PM 51.8 °F - 42.8 °F 71% 30.28 in 10.0 mi ENE 11.5 mph - N/A   Clear
2:15 PM 53.6 °F - 42.8 °F 67% 30.28 in 10.0 mi ENE 11.5 mph - N/A   Clear
2:35 PM 53.6 °F - 42.8 °F 67% 30.28 in 10.0 mi ENE 9.2 mph - N/A   Clear
2:55 PM 53.6 °F - 41.0 °F 62% 30.27 in 10.0 mi ENE 9.2 mph - N/A   Clear
3:15 PM 53.6 °F - 39.2 °F 58% 30.27 in 10.0 mi ENE 8.1 mph - N/A   Clear
3:35 PM 53.6 °F - 39.2 °F 58% 30.27 in 10.0 mi ENE 10.4 mph 17.3 mph N/A   Clear
3:55 PM 53.6 °F - 37.4 °F 54% 30.27 in 10.0 mi ENE 11.5 mph 17.3 mph N/A   Clear
4:55 PM 51.8 °F - 37.4 °F 58% 30.28 in 10.0 mi ENE 13.8 mph 18.4 mph N/A   Clear
5:15 PM 51.8 °F - 37.4 °F 58% 30.28 in 10.0 mi East 10.4 mph 17.3 mph N/A   Clear
5:35 PM 51.8 °F - 37.4 °F 58% 30.27 in 10.0 mi ENE 11.5 mph 16.1 mph N/A   Clear
5:55 PM 51.8 °F - 37.4 °F 58% 30.27 in 10.0 mi East 10.4 mph - N/A   Clear
6:15 PM 51.8 °F - 37.4 °F 58% 30.27 in 10.0 mi East 9.2 mph - N/A   Mostly Cloudy
6:35 PM 51.8 °F - 37.4 °F 58% 30.27 in 10.0 mi East 12.7 mph - N/A   Overcast
6:55 PM 51.8 °F - 37.4 °F 58% 30.27 in 10.0 mi East 10.4 mph - N/A   Overcast
7:35 PM 51.8 °F - 35.6 °F 54% 30.27 in 10.0 mi East 15.0 mph 19.6 mph N/A   Overcast
8:15 PM 51.8 °F - 35.6 °F 54% 30.27 in 10.0 mi East 13.8 mph 19.6 mph N/A   Overcast
8:35 PM 51.8 °F - 35.6 °F 54% 30.27 in 10.0 mi East 12.7 mph 21.9 mph N/A   Overcast
8:55 PM 51.8 °F - 37.4 °F 58% 30.26 in 10.0 mi East 15.0 mph 21.9 mph N/A   Overcast
9:15 PM 51.8 °F - 37.4 °F 58% 30.25 in 10.0 mi East 15.0 mph 23.0 mph N/A   Overcast
9:35 PM 51.8 °F - 37.4 °F 58% 30.24 in 10.0 mi East 17.3 mph 27.6 mph N/A   Overcast
9:55 PM 51.8 °F - 37.4 °F 58% 30.23 in 10.0 mi East 16.1 mph 31.1 mph N/A   Overcast
10:35 PM 51.8 °F - 35.6 °F 54% 30.21 in 10.0 mi East 24.2 mph 35.7 mph N/A   Mostly Cloudy
10:55 PM 51.8 °F - 37.4 °F 58% 30.21 in 10.0 mi East 16.1 mph 32.2 mph N/A   Overcast
11:15 PM 51.8 °F - 35.6 °F 54% 30.21 in 10.0 mi East 21.9 mph 29.9 mph N/A   Overcast
11:55 PM 50.0 °F - 37.4 °F 62% 30.20 in 10.0 mi East 19.6 mph 25.3 mph N/A   Mostly Cloudy